Satellite: HRBE Catalog number: 37855 Epoch time: 13206.16794807 Element set: 547 Inclination: 101.7105 deg RA of node: 078.0940 deg Eccentricity: 0.0234681 Arg of perigee: 277.6172 deg Mean anomaly: 230.1591 deg Mean motion: 14.84350061 rev/day Decay rate: 2.142e-05 rev/day^2 Epoch rev: 9408 Checksum: 288
Satellite: RS-39 Catalog number: 38051 Epoch time: 13206.52349244 Element set: 634 Inclination: 051.6350 deg RA of node: 025.3884 deg Eccentricity: 0.0011451 Arg of perigee: 049.7656 deg Mean anomaly: 053.5913 deg Mean motion: 15.33711843 rev/day Decay rate: 1.0798e-04 rev/day^2 Epoch rev: 8366 Checksum: 304
Satellite: E-STAR Catalog number: 38079 Epoch time: 13206.79825398 Element set: 307 Inclination: 069.4743 deg RA of node: 089.8114 deg Eccentricity: 0.0594844 Arg of perigee: 085.8342 deg Mean anomaly: 322.0796 deg Mean motion: 14.50410579 rev/day Decay rate: 5.1678e-04 rev/day^2 Epoch rev: 7533 Checksum: 346
Satellite: GOLIAT Catalog number: 38085 Epoch time: 13206.85576662 Element set: 240 Inclination: 069.4728 deg RA of node: 092.1613 deg Eccentricity: 0.0605359 Arg of perigee: 086.9911 deg Mean anomaly: 280.0201 deg Mean motion: 14.48077008 rev/day Decay rate: 4.5599e-04 rev/day^2 Epoch rev: 7527 Checksum: 319
Satellite: HORYU-2 Catalog number: 38340 Epoch time: 13206.05963241 Element set: 556 Inclination: 098.2173 deg RA of node: 154.0459 deg Eccentricity: 0.0013348 Arg of perigee: 129.4094 deg Mean anomaly: 230.8301 deg Mean motion: 14.71042309 rev/day Decay rate: 8.34e-06 rev/day^2 Epoch rev: 6368 Checksum: 280
Satellite: RS-40 Catalog number: 38736 Epoch time: 13206.06782312 Element set: 327 Inclination: 082.4808 deg RA of node: 131.5138 deg Eccentricity: 0.0019974 Arg of perigee: 243.7804 deg Mean anomaly: 116.1222 deg Mean motion: 12.42869469 rev/day Decay rate: 1.0e-07 rev/day^2 Epoch rev: 4495 Checksum: 294
Satellite: PROITERES Catalog number: 38756 Epoch time: 13206.46234203 Element set: 967 Inclination: 098.2515 deg RA of node: 284.2074 deg Eccentricity: 0.0012374 Arg of perigee: 351.3687 deg Mean anomaly: 008.7309 deg Mean motion: 14.74278366 rev/day Decay rate: 4.19e-06 rev/day^2 Epoch rev: 4703 Checksum: 306
Satellite: RAIKO Catalog number: 38852 Epoch time: 13205.55651821 Element set: 296 Inclination: 051.6327 deg RA of node: 252.0763 deg Eccentricity: 0.0007794 Arg of perigee: 018.9802 deg Mean anomaly: 341.1136 deg Mean motion: 16.01661978 rev/day Decay rate: 3.95142e-03 rev/day^2 Epoch rev: 4582 Checksum: 304
Satellite: FITSAT 1 Catalog number: 38853 Epoch time: 13184.86912902 Element set: 315 Inclination: 051.6252 deg RA of node: 351.6077 deg Eccentricity: 0.0011722 Arg of perigee: 245.9321 deg Mean anomaly: 114.2104 deg Mean motion: 16.39337660 rev/day Decay rate: 6.638326e-02 rev/day^2 Epoch rev: 4270 Checksum: 289
Satellite: TechEdSat Catalog number: 38854 Epoch time: 13124.93253577 Element set: 290 Inclination: 051.6449 deg RA of node: 297.0261 deg Eccentricity: 0.0010505 Arg of perigee: 310.8629 deg Mean anomaly: 049.0629 deg Mean motion: 16.38844728 rev/day Decay rate: 1.1592855e-01 rev/day^2 Epoch rev: 3329 Checksum: 325
Satellite: F 1 Catalog number: 38855 Epoch time: 13129.77714356 Element set: 287 Inclination: 051.5085 deg RA of node: 272.4145 deg Eccentricity: 0.0008326 Arg of perigee: 194.2908 deg Mean anomaly: 166.5495 deg Mean motion: 16.49710473 rev/day Decay rate: 2.7424026e-01 rev/day^2 Epoch rev: 3394 Checksum: 332
Satellite: WeWish Catalog number: 38856 Epoch time: 13069.98095549 Element set: 248 Inclination: 051.6166 deg RA of node: 215.0521 deg Eccentricity: 0.0008325 Arg of perigee: 316.0438 deg Mean anomaly: 044.8765 deg Mean motion: 16.41348316 rev/day Decay rate: 1.6701328e-01 rev/day^2 Epoch rev: 2458 Checksum: 318
Satellite: OSSI-1 Catalog number: 39131 Epoch time: 13188.41684431 Element set: 8 Inclination: 064.8841 deg RA of node: 114.8425 deg Eccentricity: 0.0051126 Arg of perigee: 026.6892 deg Mean anomaly: 350.0589 deg Mean motion: 16.22925119 rev/day Decay rate: 1.502874e-02 rev/day^2 Epoch rev: 1237 Checksum: 296
Satellite: BEESAT-3 Catalog number: 39134 Epoch time: 13206.73599838 Element set: 243 Inclination: 064.8689 deg RA of node: 087.4682 deg Eccentricity: 0.0008514 Arg of perigee: 203.9596 deg Mean anomaly: 156.1737 deg Mean motion: 15.00592718 rev/day Decay rate: 2.879e-05 rev/day^2 Epoch rev: 1461 Checksum: 339
Satellite: BEESAT-2 Catalog number: 39136 Epoch time: 13206.16362994 Element set: 222 Inclination: 064.8778 deg RA of node: 089.2969 deg Eccentricity: 0.0008918 Arg of perigee: 204.9260 deg Mean anomaly: 298.0013 deg Mean motion: 15.00537809 rev/day Decay rate: 2.567e-05 rev/day^2 Epoch rev: 1452 Checksum: 316
/EX
participants (1)
-
Ray Hoad